| time (UTC) | temp C | wind direction | speed KPH | gust KPH | rain 1hr cm | rain 24hr cm | rain mn cm | humidity % | barometer mb |
| 20260505124515 | 11 | 19 | 3.2 | 6.4 | 0.00 | 0.00 | 0.00 | 92 | 1015.6 |
| 20260505123010 | 11 | 360 | 1.6 | 4.8 | 0.00 | 0.00 | 0.00 | 92 | 1015.7 |
| 20260505121522 | 11 | 5 | 0.0 | 6.4 | 0.00 | 0.00 | 0.00 | 92 | 1015.6 |
| 20260505120033 | 11 | 15 | 0.0 | 4.8 | 0.00 | 0.00 | 0.00 | 92 | 1015.5 |
| 20260505114516 | 11 | 346 | 3.2 | 6.4 | 0.00 | 0.00 | 0.00 | 91 | 1015.3 |
| 20260505113015 | 11 | 28 | 1.6 | 4.8 | 0.00 | 0.00 | 0.00 | 91 | 1015.4 |
| 20260505111522 | 11 | 360 | 3.2 | 4.8 | 0.00 | 0.00 | 0.00 | 89 | 1015.3 |
| 20260505101524 | 11 | 22 | 3.2 | 6.4 | 0.00 | 0.00 | 0.00 | 86 | 1015.0 |
| 20260505100028 | 11 | 352 | 1.6 | 3.2 | 0.00 | 0.00 | 0.00 | 87 | 1015.0 |
| 20260505094518 | 11 | 37 | 1.6 | 4.8 | 0.00 | 0.00 | 0.00 | 87 | 1015.0 |
| 20260505093014 | 11 | 15 | 1.6 | 4.8 | 0.00 | 0.00 | 0.00 | 87 | 1014.9 |
| 20260505091532 | 11 | 11 | 0.0 | 3.2 | 0.00 | 0.00 | 0.00 | 87 | 1014.7 |
| 20260505090027 | 11 | 17 | 0.0 | 3.2 | 0.00 | 0.00 | 0.00 | 88 | 1014.7 |
| 20260505084543 | 11 | 13 | 3.2 | 6.4 | 0.00 | 0.00 | 0.00 | 88 | 1014.6 |
| 20260505083042 | 11 | 352 | 3.2 | 6.4 | 0.00 | 0.00 | 0.00 | 88 | 1014.5 |
| 20260505081526 | 11 | 321 | 1.6 | 4.8 | 0.00 | 0.00 | 0.00 | 87 | 1014.4 |
| 20260505080033 | 11 | 360 | 1.6 | 4.8 | 0.00 | 0.00 | 0.00 | 87 | 1014.4 |
| 20260505074518 | 11 | 9 | 1.6 | 8.0 | 0.00 | 0.00 | 0.00 | 86 | 1014.3 |
| 20260505073024 | 11 | 11 | 4.8 | 8.0 | 0.00 | 0.00 | 0.00 | 85 | 1014.0 |
| 20260505071512 | 12 | 11 | 1.6 | 4.8 | 0.00 | 0.00 | 0.00 | 85 | 1014.0 |
| 20260505070013 | 12 | 352 | 0.0 | 8.0 | 0.00 | 0.00 | 0.00 | 85 | 1013.9 |
| 20260505064508 | 12 | 339 | 3.2 | 9.7 | 0.00 | 0.00 | 0.00 | 84 | 1013.6 |
| 20260505063032 | 12 | 330 | 1.6 | 8.0 | 0.00 | 0.00 | 0.00 | 83 | 1013.5 |
| 20260505061527 | 12 | 311 | 1.6 | 4.8 | 0.00 | 0.00 | 0.00 | 82 | 1013.2 |
| 20260505060038 | 13 | 352 | 1.6 | 14.5 | 0.00 | 0.00 | 0.00 | 80 | 1013.0 |
| 20260505054518 | 13 | 331 | 4.8 | 12.9 | 0.00 | 0.00 | 0.00 | 79 | 1012.9 |
| 20260505053013 | 13 | 322 | 1.6 | 11.3 | 0.00 | 0.00 | 0.00 | 78 | 1012.9 |
| 20260505051520 | 14 | 352 | 6.4 | 8.0 | 0.00 | 0.00 | 0.00 | 76 | 1012.8 |
| 20260505041516 | 16 | 13 | 4.8 | 11.3 | 0.00 | 0.00 | 0.00 | 70 | 1012.0 |
| 20260505040019 | 16 | 342 | 3.2 | 8.0 | 0.00 | 0.00 | 0.00 | 69 | 1011.6 |
| 20260505034528 | 17 | 346 | 8.0 | 14.5 | 0.00 | 0.00 | 0.00 | 67 | 1011.4 |
| 20260505033022 | 17 | 345 | 4.8 | 16.1 | 0.00 | 0.00 | 0.00 | 66 | 1011.3 |
| 20260505031520 | 18 | 337 | 1.6 | 12.9 | 0.00 | 0.00 | 0.00 | 65 | 1011.1 |
| 20260505030016 | 20 | 11 | 8.0 | 14.5 | 0.00 | 0.00 | 0.00 | 62 | 1010.8 |
| 20260505024515 | 21 | 350 | 4.8 | 12.9 | 0.00 | 0.00 | 0.00 | 65 | 1010.7 |
| 20260505023018 | 21 | 320 | 1.6 | 4.8 | 0.00 | 0.00 | 0.00 | 63 | 1010.4 |
| 20260505021530 | 22 | 307 | 3.2 | 6.4 | 0.00 | 0.00 | 0.00 | 62 | 1010.5 |
| 20260505020034 | 22 | 315 | 3.2 | 6.4 | 0.00 | 0.00 | 0.00 | 59 | 1010.6 |
| 20260505014535 | 22 | 323 | 1.6 | 6.4 | 0.00 | 0.00 | 0.00 | 58 | 1010.6 |
| 20260505013036 | 22 | 228 | 3.2 | 8.0 | 0.00 | 0.00 | 0.00 | 59 | 1010.7 |
| 20260505011533 | 22 | 241 | 4.8 | 12.9 | 0.00 | 0.00 | 0.00 | 57 | 1010.7 |
| 20260505010019 | 22 | 212 | 3.2 | 9.7 | 0.00 | 0.00 | 0.00 | 56 | 1010.7 |
| 20260505004520 | 22 | 13 | 3.2 | 9.7 | 0.00 | 0.00 | 0.00 | 57 | 1010.9 |
| 20260505003024 | 22 | 228 | 1.6 | 11.3 | 0.00 | 0.00 | 0.00 | 57 | 1011.0 |
| 20260505001515 | 22 | 338 | 3.2 | 12.9 | 0.00 | 0.00 | 0.00 | 56 | 1011.0 |
| 20260505000013 | 22 | 190 | 3.2 | 9.7 | 0.00 | 0.00 | 0.00 | 56 | 1011.2 |
| 20260504234528 | 22 | 294 | 3.2 | 6.4 | 0.00 | 0.00 | 0.00 | 56 | 1011.2 |
| 20260504233022 | 22 | 178 | 3.2 | 14.5 | 0.00 | 0.00 | 0.00 | 58 | 1011.2 |
| 20260504231525 | 22 | 238 | 3.2 | 14.5 | 0.00 | 0.00 | 0.00 | 56 | 1011.2 |
| 20260504230022 | 22 | 155 | 6.4 | 9.7 | 0.00 | 0.00 | 0.00 | 58 | 1011.5 |
| 20260504224518 | 22 | 120 | 6.4 | 14.5 | 0.00 | 0.00 | 0.00 | 56 | 1011.7 |
| 20260504223016 | 22 | 183 | 4.8 | 12.9 | 0.00 | 0.00 | 0.00 | 62 | 1012.0 |
| 20260504221511 | 21 | 202 | 8.0 | 12.9 | 0.00 | 0.00 | 0.00 | 59 | 1012.3 |
| 20260504220008 | 21 | 169 | 3.2 | 11.3 | 0.00 | 0.00 | 0.00 | 60 | 1012.3 |
| 20260504214509 | 20 | 209 | 8.0 | 12.9 | 0.00 | 0.00 | 0.00 | 63 | 1012.5 |
| 20260504213020 | 20 | 238 | 9.7 | 14.5 | 0.00 | 0.00 | 0.00 | 61 | 1012.6 |
| 20260504211511 | 20 | 176 | 3.2 | 11.3 | 0.00 | 0.00 | 0.00 | 62 | 1012.8 |
| 20260504210020 | 20 | 248 | 6.4 | 12.9 | 0.00 | 0.00 | 0.00 | 64 | 1013.1 |
| 20260504204519 | 19 | 200 | 3.2 | 11.3 | 0.00 | 0.00 | 0.00 | 64 | 1013.3 |
| 20260504203013 | 18 | 190 | 4.8 | 14.5 | 0.00 | 0.00 | 0.00 | 65 | 1013.4 |
| 20260504201510 | 19 | 146 | 3.2 | 11.3 | 0.00 | 0.00 | 0.00 | 64 | 1013.6 |
| 20260504200021 | 18 | 244 | 9.7 | 12.9 | 0.00 | 0.00 | 0.00 | 65 | 1013.7 |
| 20260504194516 | 18 | 204 | 6.4 | 12.9 | 0.00 | 0.00 | 0.00 | 66 | 1013.8 |
| 20260504193012 | 17 | 188 | 8.0 | 12.9 | 0.00 | 0.00 | 0.00 | 68 | 1013.8 |
| 20260504191511 | 17 | 149 | 4.8 | 11.3 | 0.00 | 0.00 | 0.00 | 68 | 1013.9 |
| 20260504190017 | 17 | 189 | 8.0 | 14.5 | 0.00 | 0.00 | 0.00 | 71 | 1014.1 |
| 20260504184514 | 17 | 173 | 8.0 | 14.5 | 0.00 | 0.00 | 0.00 | 70 | 1014.2 |
| 20260504183010 | 16 | 182 | 8.0 | 14.5 | 0.00 | 0.00 | 0.00 | 70 | 1014.2 |
| 20260504181523 | 16 | 222 | 3.2 | 14.5 | 0.00 | 0.00 | 0.00 | 71 | 1014.1 |
| 20260504180023 | 16 | 153 | 11.3 | 17.7 | 0.00 | 0.00 | 0.00 | 71 | 1014.1 |
| 20260504174517 | 16 | 193 | 3.2 | 17.7 | 0.00 | 0.00 | 0.00 | 73 | 1014.2 |
| 20260504173016 | 16 | 167 | 8.0 | 17.7 | 0.00 | 0.00 | 0.00 | 72 | 1014.2 |
| 20260504171510 | 15 | 142 | 8.0 | 14.5 | 0.00 | 0.00 | 0.00 | 77 | 1014.1 |